,,,PA_Meas_PMT16A,,PR_Meas_QMR101_102,,RH_Meas_QMH101,,SR_Meas_QMS101,,TA_Meas_QMH101,,GenWind,,GenWind,
date,time,status,PA,status,PR,status,RH,status,SR,status,TA,status,DirAvg,status,SpdAvg,
2014-10-03, 00:00:05,VALID,1008.92,VALID,0,VALID,104,VALID,0,VALID,25.5846,VALID,214,VALID,0,
2014-10-03, 00:01:05,VALID,1008.9,VALID,0,VALID,104,VALID,0,VALID,25.6236,VALID,214,VALID,0,
2014-10-03, 00:02:05,VALID,1008.89,VALID,0,VALID,104,VALID,0,VALID,25.6236,VALID,214,VALID,0,
2014-10-03, 00:03:05,VALID,1008.92,VALID,0,VALID,104,VALID,0,VALID,25.6236,VALID,214,VALID,0,
2014-10-03, 00:04:05,VALID,1008.96,VALID,0,VALID,104,VALID,0,VALID,25.6431,VALID,214,VALID,0,
2014-10-03, 00:05:05,VALID,1008.98,VALID,0,VALID,104,VALID,0,VALID,25.6626,VALID,214,VALID,0,
2014-10-03, 00:06:05,VALID,1008.96,VALID,0,VALID,104,VALID,0,VALID,25.6626,VALID,214,VALID,0,
2014-10-03, 00:07:05,VALID,1008.99,VALID,0,VALID,104,VALID,0,VALID,25.6626,VALID,214,VALID,0,
2014-10-03, 00:08:05,VALID,1008.98,VALID,0,VALID,104,VALID,0,VALID,25.6626,VALID,214,VALID,0,
2014-10-03, 00:09:04,VALID,1008.96,VALID,0,VALID,104,VALID,0,VALID,25.6626,VALID,214,VALID,0,
2014-10-03, 00:10:04,VALID,1008.91,VALID,0,VALID,104,VALID,0,VALID,25.6626,VALID,214,VALID,0,
2014-10-03, 00:11:04,VALID,1008.9,VALID,0,VALID,104,VALID,0,VALID,25.6412,VALID,214,VALID,0,
2014-10-03, 00:12:04,VALID,1008.87,VALID,0,VALID,104,VALID,0,VALID,25.6626,VALID,214,VALID,0,
2014-10-03, 00:13:04,VALID,1008.88,VALID,0,VALID,104,VALID,0,VALID,25.6626,VALID,214,VALID,0,
2014-10-03, 00:14:04,VALID,1008.89,VALID,0,VALID,104,VALID,0,VALID,25.6431,VALID,214,VALID,0,
2014-10-03, 00:15:04,VALID,1008.89,VALID,0,VALID,104,VALID,0,VALID,25.6236,VALID,214,VALID,0,
2014-10-03, 00:16:04,VALID,1008.89,VALID,0,VALID,104,VALID,0,VALID,25.6256,VALID,214,VALID,0,
2014-10-03, 00:17:04,VALID,1008.87,VALID,0,VALID,104,VALID,0,VALID,25.6022,VALID,214,VALID,0,
2014-10-03, 00:18:04,VALID,1008.86,VALID,0,VALID,104,VALID,0,VALID,25.6041,VALID,214,VALID,0,
2014-10-03, 00:19:04,VALID,1008.85,VALID,0,VALID,104,VALID,0,VALID,25.6041,VALID,214,VALID,0,
2014-10-03, 00:20:04,VALID,1008.87,VALID,0,VALID,104,VALID,0,VALID,25.6041,VALID,214,VALID,0,
2014-10-03, 00:21:04,VALID,1008.85,VALID,0,VALID,104,VALID,0,VALID,25.6041,VALID,214,VALID,0,
2014-10-03, 00:22:04,VALID,1008.83,VALID,0,VALID,104,VALID,0,VALID,25.5846,VALID,214,VALID,0,
2014-10-03, 00:23:04,VALID,1008.83,VALID,0,VALID,104,VALID,0,VALID,25.5846,VALID,214,VALID,0,
2014-10-03, 00:24:04,VALID,1008.84,VALID,0,VALID,104,VALID,0,VALID,25.5846,VALID,214,VALID,0,
2014-10-03, 00:25:04,VALID,1008.84,VALID,0,VALID,104,VALID,0,VALID,25.5846,VALID,214,VALID,0,
2014-10-03, 00:26:04,VALID,1008.82,VALID,0,VALID,104,VALID,0,VALID,25.6041,VALID,214,VALID,0,
2014-10-03, 00:27:04,VALID,1008.81,VALID,0,VALID,104,VALID,0,VALID,25.6041,VALID,214,VALID,0,
2014-10-03, 00:28:04,VALID,1008.79,VALID,0,VALID,104,VALID,0,VALID,25.6041,VALID,214,VALID,0,
2014-10-03, 00:29:04,VALID,1008.79,VALID,0,VALID,104,VALID,0,VALID,25.6451,VALID,214,VALID,0,
2014-10-03, 00:30:04,VALID,1008.78,VALID,0,VALID,104,VALID,0,VALID,25.6236,VALID,214,VALID,0,
2014-10-03, 00:31:04,VALID,1008.72,VALID,0,VALID,104,VALID,0,VALID,25.6236,VALID,214,VALID,0,
2014-10-03, 00:32:04,VALID,1008.72,VALID,0,VALID,104,VALID,0,VALID,25.6626,VALID,214,VALID,0,
2014-10-03, 00:33:04,VALID,1008.72,VALID,0,VALID,104,VALID,0,VALID,25.6431,VALID,214,VALID,0,
2014-10-03, 00:34:04,VALID,1008.72,VALID,0,VALID,104,VALID,0,VALID,25.6236,VALID,214,VALID,0,
2014-10-03, 00:35:04,VALID,1008.73,VALID,0,VALID,104,VALID,0,VALID,25.6236,VALID,214,VALID,0,
2014-10-03, 00:36:04,VALID,1008.71,VALID,0,VALID,104,VALID,0,VALID,25.6041,VALID,214,VALID,0,
2014-10-03, 00:37:04,VALID,1008.67,VALID,0,VALID,104,VALID,0,VALID,25.6041,VALID,214,VALID,0,
2014-10-03, 00:38:04,VALID,1008.66,VALID,0,VALID,104,VALID,0,VALID,25.6256,VALID,214,VALID,0,
2014-10-03, 00:39:04,VALID,1008.63,VALID,0,VALID,104,VALID,0,VALID,25.6061,VALID,214,VALID,0,
2014-10-03, 00:40:04,VALID,1008.62,VALID,0,VALID,104,VALID,0,VALID,25.5846,VALID,214,VALID,0,
2014-10-03, 00:41:04,VALID,1008.58,VALID,0,VALID,104,VALID,0,VALID,25.5846,VALID,214,VALID,0,
2014-10-03, 00:42:04,VALID,1008.58,VALID,0,VALID,104,VALID,0,VALID,25.5846,VALID,214,VALID,0,
2014-10-03, 00:43:04,VALID,1008.56,VALID,0,VALID,104,VALID,0,VALID,25.5846,VALID,214,VALID,0,
2014-10-03, 00:44:04,VALID,1008.54,VALID,0,VALID,104,VALID,0,VALID,25.5632,VALID,214,VALID,0,
2014-10-03, 00:45:04,VALID,1008.56,VALID,0,VALID,104,VALID,0.112112,VALID,25.5632,VALID,214,VALID,0,
2014-10-03, 00:46:04,VALID,1008.59,VALID,0,VALID,104,VALID,0.112112,VALID,25.5632,VALID,214,VALID,0,
2014-10-03, 00:47:04,VALID,1008.59,VALID,0,VALID,104,VALID,0.112112,VALID,25.5437,VALID,214,VALID,0,
2014-10-03, 00:48:04,VALID,1008.62,VALID,0,VALID,104,VALID,0.112112,VALID,25.5437,VALID,214,VALID,0,
2014-10-03, 00:49:04,VALID,1008.64,VALID,0,VALID,104,VALID,0,VALID,25.5242,VALID,214,VALID,0,
2014-10-03, 00:50:04,VALID,1008.62,VALID,0,VALID,104,VALID,0.112112,VALID,25.4852,VALID,214,VALID,0,
2014-10-03, 00:51:04,VALID,1008.61,VALID,0,VALID,104,VALID,0.112112,VALID,25.4443,VALID,214,VALID,0,
2014-10-03, 00:52:04,VALID,1008.6,VALID,0,VALID,104,VALID,0.112112,VALID,25.4462,VALID,214,VALID,0,
2014-10-03, 00:53:04,VALID,1008.58,VALID,0,INVALID,109.666,VALID,0.112112,VALID,25.4267,VALID,214,VALID,0,
2014-10-03, 00:54:04,VALID,1008.58,VALID,0,INVALID,110.566,VALID,0.112112,VALID,25.4092,VALID,214,VALID,0,
2014-10-03, 00:55:04,VALID,1008.52,VALID,0,INVALID,111.649,VALID,0.112112,VALID,25.4072,VALID,214,VALID,0,
2014-10-03, 00:56:04,VALID,1008.48,VALID,0,INVALID,112.076,VALID,0.112112,VALID,25.3877,VALID,214,VALID,0,
2014-10-03, 00:57:04,VALID,1008.46,VALID,0,INVALID,112.426,VALID,0.112112,VALID,25.3877,VALID,214,VALID,0,
2014-10-03, 00:58:04,VALID,1008.39,VALID,0,INVALID,113.128,VALID,0,VALID,25.3897,VALID,214,VALID,0,
2014-10-03, 00:59:04,VALID,1008.37,VALID,0,INVALID,114.104,VALID,0,VALID,25.4092,VALID,214,VALID,0,
2014-10-03, 01:00:04,VALID,1008.34,VALID,0,INVALID,114.874,VALID,0,VALID,25.3897,VALID,214,VALID,0,
2014-10-03, 01:01:04,VALID,1008.35,VALID,0,INVALID,115.256,VALID,0,VALID,25.4092,VALID,214,VALID,0,
2014-10-03, 01:02:04,VALID,1008.32,VALID,0,INVALID,115.614,VALID,0,VALID,25.4092,VALID,214,VALID,0,
2014-10-03, 01:03:04,VALID,1008.33,VALID,0,INVALID,115.98,VALID,0,VALID,25.4306,VALID,214,VALID,0,
2014-10-03, 01:04:04,VALID,1008.33,VALID,0,INVALID,115.408,VALID,0,VALID,25.3897,VALID,214,VALID,0,
2014-10-03, 01:05:04,VALID,1008.36,VALID,0,INVALID,115.759,VALID,0,VALID,25.3702,VALID,214,VALID,0,
2014-10-03, 01:06:04,VALID,1008.28,VALID,0,INVALID,116.392,VALID,0,VALID,25.4092,VALID,214,VALID,0,
2014-10-03, 01:07:04,VALID,1008.3,VALID,0,INVALID,116.613,VALID,0,VALID,25.4092,VALID,214,VALID,0,
2014-10-03, 01:08:04,VALID,1008.29,VALID,0,INVALID,116.43,VALID,0,VALID,25.4287,VALID,214,VALID,0,
2014-10-03, 01:09:04,VALID,1008.28,VALID,0,INVALID,116.979,VALID,0,VALID,25.5261,VALID,200,VALID,0,
2014-10-03, 01:10:04,VALID,1008.28,VALID,0,INVALID,115.95,VALID,0,VALID,25.6041,VALID,200,VALID,0,
2014-10-03, 01:11:04,VALID,1008.29,VALID,0,INVALID,113.547,VALID,0,VALID,25.6607,VALID,206,VALID,0,
2014-10-03, 01:12:04,VALID,1008.27,VALID,0,INVALID,110.734,VALID,0,VALID,25.7601,VALID,209,VALID,0,
2014-10-03, 01:13:04,VALID,1008.26,VALID,0,VALID,104,VALID,0,VALID,25.8186,VALID,209,VALID,0,
2014-10-03, 01:14:04,VALID,1008.27,VALID,0,VALID,103.413,VALID,0,VALID,25.8771,VALID,209,VALID,0,
2014-10-03, 01:15:04,VALID,1008.28,VALID,0,VALID,100.332,VALID,0,VALID,25.9161,VALID,209,VALID,0,
2014-10-03, 01:16:04,VALID,1008.26,VALID,0,VALID,95.3905,VALID,0,VALID,26.0331,VALID,221,VALID,0.623047,
2014-10-03, 01:17:04,VALID,1008.25,VALID,0,VALID,91.6539,VALID,0,VALID,26.1306,VALID,221,VALID,0.603516,
2014-10-03, 01:18:04,VALID,1008.25,VALID,0,VALID,90.2508,VALID,0,VALID,26.1696,VALID,221,VALID,0.330859,
2014-10-03, 01:19:04,VALID,1008.25,VALID,0,VALID,88.474,VALID,0,VALID,26.2866,VALID,208,VALID,1.1332,
2014-10-03, 01:20:04,VALID,1008.24,VALID,0,VALID,87.5894,VALID,0,VALID,26.3646,VALID,208,VALID,0.842578,
2014-10-03, 01:21:04,VALID,1008.22,VALID,0,VALID,86.7734,VALID,0,VALID,26.4231,VALID,199,VALID,0.615625,
2014-10-03, 01:22:04,VALID,1008.22,VALID,0,VALID,86.2701,VALID,0.112112,VALID,26.4601,VALID,198,VALID,0.270312,
2014-10-03, 01:23:04,VALID,1008.25,VALID,0,VALID,85.9575,VALID,0,VALID,26.4796,VALID,200,VALID,0.864062,
2014-10-03, 01:24:04,VALID,1008.23,VALID,0,VALID,85.6067,VALID,0,VALID,26.5011,VALID,197,VALID,0.0417969,
2014-10-03, 01:25:04,VALID,1008.26,VALID,0,VALID,85.3703,VALID,0,VALID,26.5381,VALID,197,VALID,0,
2014-10-03, 01:26:04,VALID,1008.26,VALID,0,VALID,85.2483,VALID,0,VALID,26.5596,VALID,197,VALID,0,
2014-10-03, 01:27:04,VALID,1008.29,VALID,0,VALID,85.2483,VALID,0,VALID,26.5596,VALID,197,VALID,0,
2014-10-03, 01:28:04,VALID,1008.33,VALID,0,VALID,85.3093,VALID,0,VALID,26.5206,VALID,197,VALID,0,
2014-10-03, 01:29:04,VALID,1008.31,VALID,0,VALID,85.3169,VALID,0,VALID,26.5206,VALID,197,VALID,0,
2014-10-03, 01:30:04,VALID,1008.29,VALID,0,VALID,85.3779,VALID,0,VALID,26.5011,VALID,197,VALID,0,
2014-10-03, 01:31:04,VALID,1008.24,VALID,0,VALID,85.2864,VALID,0,VALID,26.5206,VALID,197,VALID,0,
2014-10-03, 01:32:04,VALID,1008.21,VALID,0,VALID,85.3703,VALID,0,VALID,26.4601,VALID,197,VALID,0,
2014-10-03, 01:33:04,VALID,1008.15,VALID,0,VALID,85.4542,VALID,0,VALID,26.4426,VALID,197,VALID,0,
2014-10-03, 01:34:04,VALID,1008.12,VALID,0,VALID,85.5076,VALID,0.112112,VALID,26.4016,VALID,197,VALID,0,
2014-10-03, 01:35:04,VALID,1008.08,VALID,0,VALID,85.6143,VALID,0,VALID,26.4231,VALID,197,VALID,0,
2014-10-03, 01:36:04,VALID,1008.08,VALID,0,VALID,85.7516,VALID,0,VALID,26.3841,VALID,197,VALID,0,
2014-10-03, 01:37:04,VALID,1008.05,VALID,0,VALID,85.8812,VALID,0,VALID,26.3431,VALID,197,VALID,0,
2014-10-03, 01:38:04,VALID,1008.07,VALID,0,VALID,86.0414,VALID,0,VALID,26.3256,VALID,203,VALID,0,
2014-10-03, 01:39:04,VALID,1008.1,VALID,0,VALID,86.1024,VALID,0,VALID,26.3451,VALID,203,VALID,0,
2014-10-03, 01:40:04,VALID,1008.1,VALID,0,VALID,86.1024,VALID,0,VALID,26.3256,VALID,203,VALID,0,
2014-10-03, 01:41:04,VALID,1008.16,VALID,0,VALID,86.1558,VALID,0,VALID,26.3256,VALID,203,VALID,0,
2014-10-03, 01:42:04,VALID,1008.18,VALID,0,VALID,86.11,VALID,0,VALID,26.3256,VALID,203,VALID,0,
2014-10-03, 01:43:04,VALID,1008.19,VALID,0,VALID,86.1253,VALID,0,VALID,26.2846,VALID,203,VALID,0,
2014-10-03, 01:44:04,VALID,1008.23,VALID,0,VALID,86.0033,VALID,0,VALID,26.3451,VALID,203,VALID,0,
2014-10-03, 01:45:04,VALID,1008.25,VALID,0,VALID,85.9499,VALID,0,VALID,26.3646,VALID,203,VALID,0,
2014-10-03, 01:46:04,VALID,1008.23,VALID,0,VALID,85.9117,VALID,0,VALID,26.3646,VALID,203,VALID,0,
2014-10-03, 01:47:04,VALID,1008.25,VALID,0,VALID,85.8812,VALID,0,VALID,26.3236,VALID,203,VALID,0,
2014-10-03, 01:48:04,VALID,1008.26,VALID,0,VALID,85.8431,VALID,0,VALID,26.3236,VALID,203,VALID,0,
2014-10-03, 01:49:04,VALID,1008.27,VALID,0,VALID,85.866,VALID,0,VALID,26.3256,VALID,203,VALID,0,
2014-10-03, 01:50:04,VALID,1008.23,VALID,0,VALID,85.9651,VALID,0,VALID,26.3256,VALID,203,VALID,0,
2014-10-03, 01:51:04,VALID,1008.27,VALID,0,VALID,86.0566,VALID,0,VALID,26.2651,VALID,203,VALID,0,
2014-10-03, 01:52:04,VALID,1008.22,VALID,0,VALID,86.1176,VALID,0,VALID,26.2866,VALID,203,VALID,0,
2014-10-03, 01:53:04,VALID,1008.25,VALID,0,VALID,86.1253,VALID,0,VALID,26.2671,VALID,203,VALID,0,
2014-10-03, 01:54:04,VALID,1008.2,VALID,0,VALID,86.1939,VALID,0,VALID,26.2671,VALID,203,VALID,0,
2014-10-03, 01:55:04,VALID,1008.22,VALID,0,VALID,86.3159,VALID,0,VALID,26.2476,VALID,203,VALID,0,
2014-10-03, 01:56:04,VALID,1008.21,VALID,0,VALID,86.3235,VALID,0,VALID,26.2671,VALID,203,VALID,0,
2014-10-03, 01:57:04,VALID,1008.23,VALID,0,VALID,86.3159,VALID,0,VALID,26.2671,VALID,203,VALID,0,
2014-10-03, 01:58:04,VALID,1008.19,VALID,0,VALID,86.354,VALID,0,VALID,26.2476,VALID,203,VALID,0,
2014-10-03, 01:59:04,VALID,1008.17,VALID,0,VALID,86.3617,VALID,0,VALID,26.2671,VALID,203,VALID,0,
2014-10-03, 02:00:04,VALID,1008.21,VALID,0,VALID,86.4227,VALID,0,VALID,26.2671,VALID,203,VALID,0,
2014-10-03, 02:01:04,VALID,1008.18,VALID,0,VALID,86.5065,VALID,0,VALID,26.2476,VALID,203,VALID,0,
2014-10-03, 02:02:04,VALID,1008.17,VALID,0,VALID,86.5447,VALID,0,VALID,26.2281,VALID,203,VALID,0,
2014-10-03, 02:03:04,VALID,1008.15,VALID,0,VALID,86.7124,VALID,0,VALID,26.2281,VALID,203,VALID,0,
2014-10-03, 02:04:04,VALID,1008.16,VALID,0,VALID,86.7811,VALID,0,VALID,26.2086,VALID,203,VALID,0,
2014-10-03, 02:05:04,VALID,1008.14,VALID,0,VALID,86.865,VALID,0,VALID,26.2086,VALID,203,VALID,0,
2014-10-03, 02:06:04,VALID,1008.14,VALID,0,VALID,87.0022,VALID,0,VALID,26.1891,VALID,203,VALID,0,
2014-10-03, 02:07:04,VALID,1008.13,VALID,0,VALID,87.0709,VALID,0,VALID,26.1891,VALID,203,VALID,0,
2014-10-03, 02:08:04,VALID,1008.11,VALID,0,VALID,87.0632,VALID,0,VALID,26.1891,VALID,203,VALID,0,
2014-10-03, 02:09:04,VALID,1008.15,VALID,0,VALID,87.0632,VALID,0,VALID,26.1871,VALID,203,VALID,0,
2014-10-03, 02:10:04,VALID,1008.12,VALID,0,VALID,87.0327,VALID,0,VALID,26.1891,VALID,203,VALID,0,
2014-10-03, 02:11:04,VALID,1008.12,VALID,0,VALID,86.9641,VALID,0,VALID,26.2086,VALID,203,VALID,0,
2014-10-03, 02:12:04,VALID,1008.13,VALID,0,VALID,86.8421,VALID,0,VALID,26.2281,VALID,203,VALID,0,
2014-10-03, 02:13:04,VALID,1008.09,VALID,0,VALID,86.8345,VALID,0,VALID,26.2066,VALID,203,VALID,0,
2014-10-03, 02:14:04,VALID,1008.12,VALID,0,VALID,86.8802,VALID,0,VALID,26.2281,VALID,203,VALID,0,
2014-10-03, 02:15:04,VALID,1008.08,VALID,0,VALID,86.8421,VALID,0,VALID,26.2066,VALID,203,VALID,0,
2014-10-03, 02:16:04,VALID,1008.1,VALID,0,VALID,86.7582,VALID,0,VALID,26.2066,VALID,203,VALID,0,
2014-10-03, 02:17:04,VALID,1008.09,VALID,0,VALID,86.7353,VALID,0,VALID,26.2066,VALID,203,VALID,0,
2014-10-03, 02:18:04,VALID,1008.11,VALID,0,VALID,86.6896,VALID,0,VALID,26.2476,VALID,203,VALID,0,
2014-10-03, 02:19:04,VALID,1008.16,VALID,0,VALID,86.5676,VALID,0,VALID,26.2476,VALID,203,VALID,0,
2014-10-03, 02:20:04,VALID,1008.19,VALID,0,VALID,86.5752,VALID,0,VALID,26.2261,VALID,203,VALID,0,
2014-10-03, 02:21:04,VALID,1008.2,VALID,0,VALID,86.6286,VALID,0,VALID,26.2476,VALID,203,VALID,0,
2014-10-03, 02:22:04,VALID,1008.23,VALID,0,VALID,86.5294,VALID,0,VALID,26.2671,VALID,203,VALID,0,
2014-10-03, 02:23:04,VALID,1008.22,VALID,0,VALID,86.4684,VALID,0,VALID,26.2671,VALID,203,VALID,0,
2014-10-03, 02:24:04,VALID,1008.25,VALID,0,VALID,86.3235,VALID,0,VALID,26.2671,VALID,203,VALID,0,
2014-10-03, 02:25:04,VALID,1008.24,VALID,0,VALID,86.2473,VALID,0,VALID,26.3061,VALID,203,VALID,0,
2014-10-03, 02:26:04,VALID,1008.24,VALID,0,VALID,86.3235,VALID,0,VALID,26.3061,VALID,203,VALID,0,
2014-10-03, 02:27:04,VALID,1008.24,VALID,0,VALID,86.1405,VALID,0,VALID,26.3061,VALID,203,VALID,0,
2014-10-03, 02:28:04,VALID,1008.24,VALID,0,VALID,86.1176,VALID,0,VALID,26.2846,VALID,203,VALID,0,
2014-10-03, 02:29:04,VALID,1008.2,VALID,0,VALID,86.0109,VALID,0,VALID,26.3256,VALID,203,VALID,0,
2014-10-03, 02:30:04,VALID,1008.22,VALID,0,VALID,85.8812,VALID,0,VALID,26.3041,VALID,203,VALID,0,
2014-10-03, 02:31:04,VALID,1008.21,VALID,0,VALID,85.8889,VALID,0,VALID,26.3236,VALID,203,VALID,0,
2014-10-03, 02:32:04,VALID,1008.24,VALID,0,VALID,85.9041,VALID,0,VALID,26.3256,VALID,203,VALID,0,
2014-10-03, 02:33:04,VALID,1008.26,VALID,0,VALID,85.9117,VALID,0,VALID,26.2846,VALID,203,VALID,0,
2014-10-03, 02:34:04,VALID,1008.26,VALID,0,VALID,85.9804,VALID,0,VALID,26.2866,VALID,203,VALID,0,
2014-10-03, 02:35:04,VALID,1008.3,VALID,0,VALID,86.1024,VALID,0,VALID,26.2456,VALID,203,VALID,0,
2014-10-03, 02:36:04,VALID,1008.36,VALID,0,VALID,86.2015,VALID,0,VALID,26.2261,VALID,203,VALID,0,
2014-10-03, 02:37:04,VALID,1008.41,VALID,0,VALID,86.171,VALID,0,VALID,26.2281,VALID,203,VALID,0,
2014-10-03, 02:38:04,VALID,1008.42,VALID,0,VALID,86.2244,VALID,0,VALID,26.2086,VALID,203,VALID,0,
2014-10-03, 02:39:04,VALID,1008.44,VALID,0,VALID,86.3007,VALID,0,VALID,26.1676,VALID,203,VALID,0,
2014-10-03, 02:40:04,VALID,1008.46,VALID,0,VALID,86.6591,VALID,0,VALID,26.1891,VALID,203,VALID,0,
2014-10-03, 02:41:04,VALID,1008.48,VALID,0,VALID,86.8955,VALID,0,VALID,26.1306,VALID,203,VALID,0,
2014-10-03, 02:42:04,VALID,1008.49,VALID,0,VALID,87.1852,VALID,0,VALID,26.1111,VALID,203,VALID,0,
2014-10-03, 02:43:04,VALID,1008.5,VALID,0,VALID,87.3301,VALID,0,VALID,26.0526,VALID,203,VALID,0,
2014-10-03, 02:44:04,VALID,1008.48,VALID,0,VALID,87.6123,VALID,0,VALID,26.0136,VALID,203,VALID,0,
2014-10-03, 02:45:04,VALID,1008.48,VALID,0,VALID,87.9936,VALID,0,VALID,25.9746,VALID,203,VALID,0,
2014-10-03, 02:46:04,VALID,1008.45,VALID,0,VALID,88.5121,VALID,0,VALID,25.9746,VALID,203,VALID,0,
2014-10-03, 02:47:04,VALID,1008.44,VALID,0,VALID,88.8858,VALID,0,VALID,25.9746,VALID,203,VALID,0,
2014-10-03, 02:48:04,VALID,1008.45,VALID,0,VALID,88.9773,VALID,0,VALID,25.9141,VALID,203,VALID,0,
2014-10-03, 02:49:04,VALID,1008.44,VALID,0,VALID,89.2213,VALID,0,VALID,25.9356,VALID,203,VALID,0,
2014-10-03, 02:50:04,VALID,1008.44,VALID,0,VALID,89.4043,VALID,0,VALID,25.9161,VALID,203,VALID,0,
2014-10-03, 02:51:04,VALID,1008.47,VALID,0,VALID,89.5797,VALID,0,VALID,25.8751,VALID,203,VALID,0,
2014-10-03, 02:52:04,VALID,1008.49,VALID,0,VALID,89.7856,VALID,0,VALID,25.8771,VALID,203,VALID,0,
2014-10-03, 02:53:04,VALID,1008.48,VALID,0,VALID,89.9763,VALID,0,VALID,25.8771,VALID,203,VALID,0,
2014-10-03, 02:54:04,VALID,1008.49,VALID,0,VALID,90.1364,VALID,0,VALID,25.8381,VALID,203,VALID,0,
2014-10-03, 02:55:04,VALID,1008.52,VALID,0,VALID,90.2889,VALID,0,VALID,25.8166,VALID,203,VALID,0,
2014-10-03, 02:56:04,VALID,1008.56,VALID,0,VALID,90.4262,VALID,0,VALID,25.8186,VALID,203,VALID,0,
2014-10-03, 02:57:04,VALID,1008.56,VALID,0,VALID,90.7083,VALID,0,VALID,25.8186,VALID,203,VALID,0,
2014-10-03, 02:58:04,VALID,1008.54,VALID,0,VALID,90.7693,VALID,0,VALID,25.8186,VALID,203,VALID,0,
2014-10-03, 02:59:04,VALID,1008.55,VALID,0,VALID,90.6931,VALID,0,VALID,25.8166,VALID,203,VALID,0,
2014-10-03, 03:00:04,VALID,1008.55,VALID,0,VALID,90.6778,VALID,0,VALID,25.8381,VALID,203,VALID,0,
2014-10-03, 03:01:04,VALID,1008.51,VALID,0,VALID,90.4948,VALID,0,VALID,25.8381,VALID,203,VALID,0,
2014-10-03, 03:02:04,VALID,1008.48,VALID,0,VALID,90.4872,VALID,0,VALID,25.8576,VALID,203,VALID,0,
2014-10-03, 03:03:04,VALID,1008.46,VALID,0,VALID,90.5634,VALID,0,VALID,25.8576,VALID,203,VALID,0,
2014-10-03, 03:04:04,VALID,1008.44,VALID,0,VALID,90.3499,VALID,0,VALID,25.8966,VALID,203,VALID,0,
2014-10-03, 03:05:04,VALID,1008.43,VALID,0,VALID,89.9915,VALID,0,VALID,25.9356,VALID,203,VALID,0,
2014-10-03, 03:06:04,VALID,1008.39,VALID,0,VALID,89.6331,VALID,0,VALID,25.9746,VALID,203,VALID,0,
2014-10-03, 03:07:04,VALID,1008.36,VALID,0,VALID,89.4272,VALID,0,VALID,25.9941,VALID,203,VALID,0,
2014-10-03, 03:08:04,VALID,1008.35,VALID,0,VALID,89.2671,VALID,0,VALID,25.9921,VALID,203,VALID,0,
2014-10-03, 03:09:04,VALID,1008.31,VALID,0,VALID,88.9925,VALID,0,VALID,25.9726,VALID,203,VALID,0,
2014-10-03, 03:10:04,VALID,1008.34,VALID,0,VALID,88.7714,VALID,0,VALID,26.0136,VALID,203,VALID,0,
2014-10-03, 03:11:04,VALID,1008.28,VALID,0,VALID,88.6036,VALID,0,VALID,26.0136,VALID,203,VALID,0,
2014-10-03, 03:12:04,VALID,1008.3,VALID,0,VALID,88.4664,VALID,0,VALID,26.0331,VALID,203,VALID,0.579687,
2014-10-03, 03:13:04,VALID,1008.31,VALID,0,VALID,88.3215,VALID,0,VALID,26.0526,VALID,203,VALID,0.349609,
2014-10-03, 03:14:04,VALID,1008.33,VALID,0,VALID,88.2071,VALID,0,VALID,26.0311,VALID,203,VALID,0.157031,
2014-10-03, 03:15:04,VALID,1008.3,VALID,0,VALID,88.108,VALID,0,VALID,26.0721,VALID,203,VALID,0,
2014-10-03, 03:16:04,VALID,1008.34,VALID,0,VALID,88.0088,VALID,0,VALID,26.0506,VALID,203,VALID,0.351172,
2014-10-03, 03:17:04,VALID,1008.31,VALID,0,VALID,87.9783,VALID,0,VALID,26.0916,VALID,203,VALID,0.0382813,
2014-10-03, 03:18:04,VALID,1008.3,VALID,0,VALID,87.7953,VALID,0,VALID,26.0916,VALID,203,VALID,0,
2014-10-03, 03:19:04,VALID,1008.32,VALID,0,VALID,87.8334,VALID,0,VALID,26.0916,VALID,203,VALID,0,
2014-10-03, 03:20:04,VALID,1008.32,VALID,0,VALID,87.7114,VALID,0,VALID,26.0916,VALID,203,VALID,0,
2014-10-03, 03:21:04,VALID,1008.33,VALID,0,VALID,87.7419,VALID,0,VALID,26.0721,VALID,203,VALID,0,
2014-10-03, 03:22:04,VALID,1008.36,VALID,0,VALID,87.7419,VALID,0,VALID,26.0721,VALID,203,VALID,0.0488281,
2014-10-03, 03:23:04,VALID,1008.36,VALID,0,VALID,87.7648,VALID,0,VALID,26.0526,VALID,203,VALID,0.516016,
2014-10-03, 03:24:04,VALID,1008.4,VALID,0,VALID,87.5818,VALID,0,VALID,26.0526,VALID,203,VALID,0.604688,
2014-10-03, 03:25:04,VALID,1008.37,VALID,0,VALID,87.4369,VALID,0,VALID,26.0916,VALID,203,VALID,0.700391,
2014-10-03, 03:26:04,VALID,1008.35,VALID,0,VALID,87.5055,VALID,0,VALID,26.0916,VALID,203,VALID,0.616406,
2014-10-03, 03:27:04,VALID,1008.36,VALID,0,VALID,87.2615,VALID,0,VALID,26.0916,VALID,203,VALID,0,
2014-10-03, 03:28:04,VALID,1008.39,VALID,0,VALID,87.3073,VALID,0,VALID,26.0916,VALID,203,VALID,0,
2014-10-03, 03:29:04,VALID,1008.35,VALID,0,VALID,87.109,VALID,0,VALID,26.0916,VALID,203,VALID,0,
2014-10-03, 03:30:04,VALID,1008.39,VALID,0,VALID,87.1014,VALID,0,VALID,26.1111,VALID,203,VALID,0,
2014-10-03, 03:31:04,VALID,1008.4,VALID,0,VALID,86.9336,VALID,0,VALID,26.0916,VALID,174,VALID,0,
2014-10-03, 03:32:04,VALID,1008.43,VALID,0,VALID,86.8116,VALID,0,VALID,26.1111,VALID,193,VALID,0,
2014-10-03, 03:33:04,VALID,1008.42,VALID,0,VALID,86.8345,VALID,0,VALID,26.1111,VALID,193,VALID,0,
2014-10-03, 03:34:04,VALID,1008.47,VALID,0,VALID,86.4227,VALID,0,VALID,26.1306,VALID,197,VALID,0.401953,
2014-10-03, 03:35:04,VALID,1008.47,VALID,0,VALID,86.0109,VALID,0,VALID,26.1306,VALID,196,VALID,0.0253906,
2014-10-03, 03:36:04,VALID,1008.48,VALID,0,VALID,85.7821,VALID,0,VALID,26.1696,VALID,190,VALID,1.20508,
2014-10-03, 03:37:04,VALID,1008.49,VALID,0,VALID,85.7287,VALID,0,VALID,26.1501,VALID,190,VALID,1.1793,
2014-10-03, 03:38:04,VALID,1008.52,VALID,0,VALID,85.6601,VALID,0,VALID,26.1891,VALID,190,VALID,0.870313,
2014-10-03, 03:39:04,VALID,1008.5,VALID,0,VALID,85.622,VALID,0,VALID,26.1716,VALID,190,VALID,1.20664,
2014-10-03, 03:40:04,VALID,1008.51,VALID,0,VALID,85.6601,VALID,0,VALID,26.1501,VALID,190,VALID,0.538672,
2014-10-03, 03:41:04,VALID,1008.52,VALID,0,VALID,85.7668,VALID,0,VALID,26.1696,VALID,190,VALID,0.0160156,
2014-10-03, 03:42:04,VALID,1008.51,VALID,0,VALID,85.6753,VALID,0,VALID,26.1286,VALID,180,VALID,0.947656,
2014-10-03, 03:43:04,VALID,1008.49,VALID,0,VALID,85.7058,VALID,0.112112,VALID,26.1501,VALID,173,VALID,0.406641,
2014-10-03, 03:44:04,VALID,1008.5,VALID,0,VALID,85.4923,VALID,0.112112,VALID,26.1286,VALID,158,VALID,0.970703,
2014-10-03, 03:45:04,VALID,1008.54,VALID,0,VALID,85.5381,VALID,0.112112,VALID,26.1286,VALID,158,VALID,0.69375,
2014-10-03, 03:46:04,VALID,1008.52,VALID,0,VALID,85.5533,VALID,0.112112,VALID,26.1091,VALID,158,VALID,0.259766,
2014-10-03, 03:47:04,VALID,1008.52,VALID,0,VALID,85.2712,VALID,0.112112,VALID,26.1091,VALID,150,VALID,1.55313,
2014-10-03, 03:48:04,VALID,1008.5,VALID,0,VALID,85.3246,VALID,0.112112,VALID,26.0896,VALID,156,VALID,1.09687,
2014-10-03, 03:49:04,VALID,1008.48,VALID,0,VALID,85.1873,VALID,0.112112,VALID,26.1091,VALID,160,VALID,0.694531,
2014-10-03, 03:50:04,VALID,1008.45,VALID,0,VALID,84.9204,VALID,0.112112,VALID,26.1091,VALID,182,VALID,1.95156,
2014-10-03, 03:51:04,VALID,1008.43,VALID,0,VALID,84.9814,VALID,0.112112,VALID,26.1091,VALID,191,VALID,1.2707,
2014-10-03, 03:52:04,VALID,1008.42,VALID,0,VALID,85.0119,VALID,0.112112,VALID,26.1091,VALID,189,VALID,1.07344,
2014-10-03, 03:53:04,VALID,1008.44,VALID,0,VALID,84.928,VALID,0.112112,VALID,26.0896,VALID,202,VALID,0.796484,
2014-10-03, 03:54:04,VALID,1008.44,VALID,0,VALID,84.9585,VALID,0.112112,VALID,26.1111,VALID,202,VALID,0.705078,
2014-10-03, 03:55:04,VALID,1008.43,VALID,0,VALID,84.9738,VALID,0.112112,VALID,26.0681,VALID,202,VALID,0.854297,
2014-10-03, 03:56:04,VALID,1008.43,VALID,0,VALID,84.7679,VALID,0.112112,VALID,26.0701,VALID,189,VALID,0.0121094,